Location: Ciserano
(45.5833°N, 9.6000°E)
Time: 08:12:11
(UTC+00:00)

Meteor 1-27 Rocket - Pass Details

Date: 29 November 2020
Orbit: 830 x 909 km, 81.3° (Epoch: 26 January)

Event Time Altitude Azimuth Distance (km) Brightness Sun altitude
Rises 05:11:21 0° 351° (N) 3,469 6.6 -15.0°
Reaches altitude 10° 05:13:48 10° 354° (N) 2,539 6.0 -14.6°
Maximum altitude 05:19:34 67° 77° (ENE) 959 4.2 -13.6°
Drops below altitude 10° 05:25:24 10° 160° (SSE) 2,569 6.7 -12.6°
Sets 05:27:53 0° 163° (SSE) 3,512 7.4 -12.2°
